Regional Weather Roundup
Issued by NWS Burlington, VT

Home | Current Version | Previous Version | Text Only | Print | Product List | Glossary On
Versions: 1 2 3 4 5 6 7 8 9 10 11 12 13 14 15 16 17 18 19 20 21 22 23 24 25 26 27 28 29 30 31 32 33 34 35 36 37 38 39 40 41 42 43 44 45 46 47 48 49 50
000
ASUS41 KBTV 291130
RWRBTV
VERMONT REGIONAL WEATHER ROUNDUP
NATIONAL WEATHER SERVICE BURLINGTON VT
700 AM EDT FRI MAY 29 2015

NOTE: "FAIR" INDICATES FEW OR NO CLOUDS BELOW 12,000 FEET WITH NO
SIGNIFICANT WEATHER AND/OR OBSTRUCTIONS TO VISIBILITY.

* THESE REPORTS ARE NOT UNDER NWS QUALITY CONTROL AND/OR DO NOT
  REPORT WEATHER SUCH AS PRECIPITATION AND FOG.

VTZ001>019-291200-
_____VERMONT_____


CITY           SKY/WX    TMP DP  RH WIND       PRES   REMARKS
BURLINGTON     PTSUNNY   59  56  89 S3        30.33S
MONTPELIER     CLOUDY    57  55  93 CALM      30.38R
MORRISVILLE    PTSUNNY   59  54  83 CALM      30.36R
LYNDONVILLE*     N/A     55  52  91 CALM      30.36R
MIDDLEBURY*    PTSUNNY   58  58  99 CALM      30.34R
RUTLAND*       SUNNY     55  52  88 NE3       30.35R
SPRINGFIELD    SUNNY     57  54  89 CALM      30.34R
HIGHGATE*        N/A     56  55  98 CALM      30.32R
NEWPORT*       FOG       53  53  99 CALM      30.35R VSB 3/4
BENNINGTON     SUNNY     55  52  89 CALM      30.33R
GALLUP MILLS*    N/A     52 N/A N/A MISG        N/A
MT. MANSFIELD*   N/A     50 N/A N/A CALM        N/A

_____LAKE CHAMPLAIN_____


CITY           SKY/WX    TMP DP  RH WIND       PRES   REMARKS
BURTON ISLAND*   N/A     59  55  88 NE5         N/A
COLCHESTER RF*   N/A     57  54  88 E1          N/A
DIAMOND ISL*     N/A     57  54  88 S1          N/A

$$

NYZ007-026>031-035-052-083-291200-
_____NORTHERN NEW YORK_____


CITY           SKY/WX    TMP DP  RH WIND       PRES   REMARKS
PLATTSBURGH    SUNNY     57  52  83 CALM      30.32R
SARANAC LAKE   FOG       47  47 100 CALM      30.32S VSB<1/4
MASSENA        SUNNY     51  50  96 CALM      30.31R
OGDENSBURG*    SUNNY     57  55  94 CALM      30.29R
POTSDAM*       SUNNY     57  55  94 CALM      30.30R
STARK FALLS*     N/A     54 N/A N/A SE8         N/A
WATERTOWN      SUNNY     53  51  93 CALM      30.28R
FT DRUM        SUNNY     55  55 100 SE8       30.28R
ALBANY         MOSUNNY   60  54  80 CALM      30.33R
GLENS FALLS    SUNNY     59  55  87 N8        30.32R

$$
NHZ002-005-011-291200-
_____NEW HAMPSHIRE_____


CITY           SKY/WX    TMP DP  RH WIND       PRES   REMARKS
LEBANON        MOSUNNY   58  55  90 CALM      30.32R
KEENE          MOSUNNY   55  54  94 CALM      30.33R
MT WASHINGTON  MOSUNNY   48  28  46 NW7         N/A
PLYMOUTH         N/A     62  59  90 NW5       30.30R
WHITEFIELD     PTSUNNY   59  55  87 CALM      30.33R

$$

_____REGIONAL QUEBEC LOCATIONS_____


CITY           SKY/WX    TMP DP  RH WIND       PRES   REMARKS
MONTREAL       PTSUNNY   57  54  88 NE6       30.31S
QUEBEC CITY    MOSUNNY   54  46  76 N5        30.33R
SHERBROOKE     PTSUNNY   54 N/A N/A VRB2      30.34R

_____REGIONAL ONTARIO LOCATIONS_____


CITY           SKY/WX    TMP DP  RH WIND       PRES   REMARKS
OTTAWA         MOSUNNY   54  52  94 NE8       30.30R

______KEY______
VSB  - VISIBILITY IN MILES
WCI  - WIND CHILL INDEX
HX   - HEAT INDEX
$$
NNNN



USA.gov is the U.S. government's official web portal to all federal, state and local government web resources and services.